Home   Weather   Bad Mergentheim   Past weeks

Flag for Germany Past Weather in Bad Mergentheim, Baden-Württemberg, Germany — Yesterday and Last 2 Weeks

Now
55 °F

Passing clouds.


Feels Like: 54 °F
Forecast: 56 / 71 °F
Wind: 6 mph from South

Location: Niederstetten

Current Time: Sep 30, 2016 at 5:19:44 AM

Latest Report: Sep 30, 2016 at 4:20 AM


Visibility: N/A

Pressure: 30.01 "Hg

Humidity: 77%

Dew Point: 48 °F

Location of Bad MergentheimLocation

Past Weather in Bad Mergentheim — Graph

°F

Bad Mergentheim Temperature Yesterday

Maximum temperature yesterday: 72 °F (at 3:20 PM)
Minimum temperature yesterday: 54 °F (at 4:20 AM)
Average temperature yesterday: 63 °F

High & Low Weather Summary for the Past Weeks

 TemperatureHumidityPressure
High82 °F (Sep 15, 3:20 PM)100% (Sep 18, 7:20 PM)30.39 "Hg (Sep 18, 7:20 PM)
Low43 °F (Sep 22, 5:20 AM)37% (Sep 15, 2:20 PM)29.86 "Hg (Sep 15, 5:20 AM)
Average58 °F77%30.12 "Hg
* Reported Sep 15 3:20 AM — Sep 30 3:20 AM, Bad Mergentheim, Weather by CustomWeather, © 2016

Note: Actual official high and low records may vary slightly from our data, if they occured in-between our weather recording intervals... More about our weather records

Advertising

Bad Mergentheim Weather History for the Previous 24 Hours

Scroll right to see more
 ConditionsComfort  
Time TempWeatherWind HumidityBarometerVisibility
3:20 AM
Fri, Sep 30
55 °FPassing clouds.6 mph77%30.01 "HgN/A
2:20 AM57 °FPassing clouds.7 mph72%30.04 "HgN/A
1:20 AM59 °FPassing clouds.7 mph68%30.04 "HgN/A
12:20 AM63 °FPassing clouds.10 mph59%30.07 "HgN/A
11:20 PM
Thu, Sep 29
63 °FPassing clouds.14 mph59%30.07 "HgN/A
10:20 PM64 °FPassing clouds.10 mph60%30.04 "HgN/A
9:20 PM64 °FPassing clouds.8 mph60%30.04 "HgN/A
8:20 PM66 °FPassing clouds.10 mph56%30.04 "HgN/A
7:20 PM66 °FPassing clouds.10 mph56%30.07 "HgN/A
6:20 PM70 °FPassing clouds.13 mph53%30.07 "HgN/A
5:20 PM70 °FPassing clouds.14 mph53%30.07 "HgN/A
4:20 PM72 °FPassing clouds.16 mph50%30.09 "HgN/A
3:20 PM72 °FPassing clouds.17 mph50%30.12 "HgN/A
2:20 PM70 °FPassing clouds.17 mph50%30.15 "HgN/A
1:20 PM68 °FPassing clouds.17 mph49%30.18 "HgN/A
12:20 PM68 °FPassing clouds.16 mph53%30.18 "HgN/A
11:20 AM66 °FPassing clouds.15 mph56%30.21 "HgN/A
10:20 AM64 °FPassing clouds.9 mph60%30.24 "HgN/A
9:20 AM61 °FPassing clouds.6 mph68%30.24 "HgN/A
8:20 AM55 °FPassing clouds.6 mph77%30.24 "HgN/A
7:20 AM54 °FScattered clouds.6 mph82%30.27 "HgN/A
6:20 AM54 °FPassing clouds.6 mph82%30.27 "HgN/A
5:20 AM54 °FPassing clouds.6 mph82%30.27 "HgN/A
Weather by CustomWeather, © 2016

See weather overviewHow to use our weather pages